• In Deutschland
  • Länderverzeichnis
  • Für 7 Tage
  • Wassertemperatur
  • Satellitenkarten
  • Wetterkarte
  • Widgets
  • user-avatar
    Anmelden

    Stündliche Wetter Wallenhorst

    Heute, 22 Februar, Donnerstag

    Zeit Temperatur Niederschläge Wind Luftdruck Luftfeuchtigkeit
    00:00 -4°C° 0 mm 3 m/S 760 mmHg 75%
    01:00 -4°C° 0 mm 3 m/S 761 mmHg 77%
    02:00 -4°C° 0 mm 3 m/S 761 mmHg 79%
    03:00 -4°C° 0 mm 3 m/S 760 mmHg 80%
    04:00 -4°C° 0 mm 3 m/S 760 mmHg 81%
    05:00 -4°C° 0 mm 3 m/S 760 mmHg 82%
    06:00 -4°C° 0 mm 3 m/S 760 mmHg 83%
    07:00 -4°C° 0 mm 3 m/S 760 mmHg 84%
    08:00 -4°C° 0 mm 3 m/S 760 mmHg 79%
    09:00 -2°C° 0 mm 3 m/S 760 mmHg 74%
    10:00 -2°C° 0 mm 4 m/S 760 mmHg 68%
    11:00 -1°C° 0 mm 4 m/S 760 mmHg 63%
    12:00 0°C° 0 mm 4 m/S 760 mmHg 58%
    13:00 +1°C° 0 mm 5 m/S 760 mmHg 52%
    14:00 +1°C° 0 mm 5 m/S 760 mmHg 53%
    15:00 +1°C° 0 mm 5 m/S 759 mmHg 54%
    16:00 +1°C° 0 mm 5 m/S 759 mmHg 55%
    17:00 0°C° 0 mm 4 m/S 759 mmHg 61%
    18:00 -1°C° 0 mm 4 m/S 759 mmHg 66%
    19:00 -1°C° 0 mm 3 m/S 759 mmHg 72%
    20:00 -2°C° 0 mm 3 m/S 759 mmHg 74%
    21:00 -2°C° 0 mm 3 m/S 759 mmHg 76%
    22:00 -4°C° 0 mm 3 m/S 760 mmHg 78%
    23:00 -4°C° 0 mm 3 m/S 760 mmHg 79%

    Morgen, 23 Februar, Freitag

    Zeit Temperatur Niederschläge Wind Luftdruck Luftfeuchtigkeit
    00:00 -4°C° 0 mm 3 m/S 760 mmHg 80%
    01:00 -4°C° 0 mm 3 m/S 760 mmHg 81%
    02:00 -4°C° 0 mm 3 m/S 759 mmHg 82%
    03:00 -5°C° 0 mm 3 m/S 759 mmHg 82%
    04:00 -5°C° 0 mm 3 m/S 759 mmHg 82%
    05:00 -5°C° 0 mm 3 m/S 759 mmHg 81%
    06:00 -5°C° 0 mm 3 m/S 759 mmHg 80%
    07:00 -5°C° 0 mm 3 m/S 759 mmHg 78%
    08:00 -4°C° 0 mm 4 m/S 760 mmHg 71%
    09:00 -4°C° 0 mm 5 m/S 760 mmHg 63%
    10:00 -2°C° 0 mm 5 m/S 760 mmHg 55%
    11:00 -3°C° 0 mm 6 m/S 760 mmHg 51%
    12:00 -2°C° 0 mm 6 m/S 759 mmHg 46%
    13:00 -1°C° 0 mm 6 m/S 759 mmHg 42%
    14:00 -1°C° 0 mm 6 m/S 759 mmHg 40%
    15:00 -1°C° 0 mm 6 m/S 759 mmHg 38%
    16:00 -1°C° 0 mm 6 m/S 759 mmHg 36%
    17:00 -2°C° 0 mm 6 m/S 759 mmHg 39%
    18:00 -4°C° 0 mm 5 m/S 759 mmHg 41%
    19:00 -5°C° 0 mm 5 m/S 759 mmHg 44%
    20:00 -5°C° 0 mm 5 m/S 759 mmHg 44%
    21:00 -5°C° 0 mm 5 m/S 760 mmHg 44%
    22:00 -5°C° 0 mm 6 m/S 760 mmHg 44%
    23:00 -6°C° 0 mm 6 m/S 760 mmHg 44%

    übermorgen, 24 Februar, Samstag

    Zeit Temperatur Niederschläge Wind Luftdruck Luftfeuchtigkeit
    00:00 -6°C° 0 mm 6 m/S 760 mmHg 43%
    01:00 -6°C° 0 mm 6 m/S 760 mmHg 43%
    02:00 -6°C° 0 mm 6 m/S 760 mmHg 42%
    03:00 -6°C° 0 mm 6 m/S 760 mmHg 41%
    04:00 -6°C° 0 mm 6 m/S 760 mmHg 40%
    05:00 -6°C° 0 mm 6 m/S 760 mmHg 41%
    06:00 -6°C° 0 mm 6 m/S 760 mmHg 42%
    07:00 -6°C° 0 mm 6 m/S 760 mmHg 43%
    08:00 -6°C° 0 mm 7 m/S 761 mmHg 44%
    09:00 -5°C° 0 mm 8 m/S 761 mmHg 46%
    10:00 -4°C° 0 mm 8 m/S 761 mmHg 47%
    11:00 -2°C° 0 mm 8 m/S 761 mmHg 48%
    12:00 -2°C° 0 mm 8 m/S 761 mmHg 48%
    13:00 -1°C° 0 mm 8 m/S 761 mmHg 48%
    14:00 -1°C° 0 mm 8 m/S 761 mmHg 46%
    15:00 -1°C° 0 mm 8 m/S 761 mmHg 45%
    16:00 -1°C° 0 mm 8 m/S 761 mmHg 43%
    17:00 -2°C° 0 mm 7 m/S 761 mmHg 44%
    18:00 -3°C° 0 mm 7 m/S 761 mmHg 46%
    19:00 -6°C° 0 mm 7 m/S 762 mmHg 47%
    20:00 -6°C° 0 mm 7 m/S 762 mmHg 48%
    21:00 -6°C° 0 mm 7 m/S 762 mmHg 49%
    22:00 -7°C° 0 mm 7 m/S 762 mmHg 50%
    23:00 -7°C° 0 mm 7 m/S 762 mmHg 50%

    25 Februar, Sonntag

    Zeit Temperatur Niederschläge Wind Luftdruck Luftfeuchtigkeit
    00:00 -7°C° 0 mm 7 m/S 763 mmHg 50%
    01:00 -6°C° 0 mm 6 m/S 763 mmHg 51%
    02:00 -8°C° 0 mm 6 m/S 763 mmHg 49%
    03:00 -8°C° 0 mm 6 m/S 763 mmHg 47%
    04:00 -8°C° 0 mm 6 m/S 763 mmHg 45%
    05:00 -8°C° 0 mm 6 m/S 763 mmHg 43%
    06:00 -9°C° 0 mm 7 m/S 763 mmHg 41%
    07:00 -9°C° 0 mm 7 m/S 763 mmHg 39%
    08:00 -8°C° 0 mm 7 m/S 764 mmHg 36%
    09:00 -8°C° 0 mm 7 m/S 764 mmHg 33%
    10:00 -7°C° 0 mm 7 m/S 764 mmHg 30%
    11:00 -6°C° 0 mm 7 m/S 764 mmHg 29%
    12:00 -6°C° 0 mm 7 m/S 764 mmHg 28%
    13:00 -4°C° 0 mm 7 m/S 763 mmHg 27%
    14:00 -4°C° 0 mm 7 m/S 763 mmHg 29%
    15:00 -4°C° 0 mm 7 m/S 763 mmHg 31%
    16:00 -4°C° 0 mm 7 m/S 763 mmHg 33%
    17:00 -5°C° 0 mm 6 m/S 763 mmHg 38%
    18:00 -5°C° 0 mm 5 m/S 763 mmHg 44%
    19:00 -6°C° 0 mm 5 m/S 763 mmHg 49%
    20:00 -6°C° 0 mm 5 m/S 763 mmHg 51%
    21:00 -7°C° 0 mm 5 m/S 763 mmHg 54%
    22:00 -7°C° 0 mm 5 m/S 763 mmHg 56%
    23:00 -7°C° 0 mm 5 m/S 763 mmHg 56%

    26 Februar, Montag

    Zeit Temperatur Niederschläge Wind Luftdruck Luftfeuchtigkeit
    00:00 -7°C° 0 mm 5 m/S 763 mmHg 55%
    01:00 -7°C° 0 mm 5 m/S 763 mmHg 54%
    02:00 -8°C° 0 mm 5 m/S 763 mmHg 56%
    03:00 -8°C° 0 mm 5 m/S 763 mmHg 57%
    04:00 -8°C° 0 mm 5 m/S 762 mmHg 59%
    05:00 -8°C° 0 mm 5 m/S 762 mmHg 62%
    06:00 -8°C° 0 mm 4 m/S 762 mmHg 65%
    07:00 -9°C° 0 mm 4 m/S 762 mmHg 68%
    08:00 -8°C° 0 mm 5 m/S 762 mmHg 62%
    09:00 -8°C° 0 mm 6 m/S 762 mmHg 56%
    10:00 -8°C° 0 mm 6 m/S 762 mmHg 51%
    11:00 -6°C° 0 mm 6 m/S 762 mmHg 47%
    12:00 -7°C° 0 mm 7 m/S 761 mmHg 43%
    13:00 -6°C° 0 mm 7 m/S 761 mmHg 40%
    14:00 -5°C° 0 mm 6 m/S 761 mmHg 39%
    15:00 -5°C° 0 mm 6 m/S 760 mmHg 39%
    16:00 -5°C° 0 mm 6 m/S 760 mmHg 39%
    17:00 -6°C° 0 mm 5 m/S 760 mmHg 43%
    18:00 -6°C° 0 mm 5 m/S 759 mmHg 46%
    19:00 -7°C° 0 mm 4 m/S 759 mmHg 50%
    20:00 -7°C° 0 mm 4 m/S 759 mmHg 52%
    21:00 -8°C° 0 mm 4 m/S 759 mmHg 53%
    22:00 -8°C° 0 mm 4 m/S 759 mmHg 55%
    23:00 -8°C° 0 mm 4 m/S 759 mmHg 56%

    27 Februar, Dienstag

    Zeit Temperatur Niederschläge Wind Luftdruck Luftfeuchtigkeit
    00:00 -8°C° 0 mm 4 m/S 759 mmHg 56%
    01:00 -8°C° 0 mm 3 m/S 758 mmHg 57%
    02:00 -8°C° 0 mm 3 m/S 758 mmHg 58%
    03:00 -8°C° 0 mm 3 m/S 758 mmHg 59%
    04:00 -9°C° 0 mm 3 m/S 757 mmHg 60%
    05:00 -9°C° 0 mm 3 m/S 757 mmHg 62%
    06:00 -9°C° 0 mm 3 m/S 757 mmHg 65%
    07:00 -8°C° 0 mm 2 m/S 757 mmHg 67%
    08:00 -7°C° 0 mm 2 m/S 757 mmHg 64%
    09:00 -7°C° 0 mm 3 m/S 757 mmHg 61%
    10:00 -6°C° 0 mm 3 m/S 757 mmHg 58%
    11:00 -6°C° 0 mm 3 m/S 757 mmHg 55%
    12:00 -5°C° 0 mm 3 m/S 756 mmHg 51%
    13:00 -4°C° 0 mm 3 m/S 756 mmHg 47%
    14:00 -4°C° 0 mm 3 m/S 756 mmHg 44%
    15:00 -4°C° 0 mm 3 m/S 756 mmHg 40%
    16:00 -4°C° 0 mm 3 m/S 756 mmHg 37%
    17:00 -5°C° 0 mm 3 m/S 756 mmHg 37%
    18:00 -5°C° 0 mm 3 m/S 756 mmHg 37%
    19:00 -5°C° 0 mm 2 m/S 756 mmHg 38%
    20:00 -5°C° 0 mm 2 m/S 757 mmHg 37%
    21:00 -6°C° 0 mm 2 m/S 757 mmHg 37%
    22:00 -6°C° 0 mm 2 m/S 757 mmHg 37%
    23:00 -6°C° 0 mm 2 m/S 758 mmHg 37%
    Mehr zeigen